Date String (YYYY-MM-DD hh:mm:ss) UTC,Instrument flags,absolute air pressure of the measurement (hPa),sample flow rate (lpm),inlet stack bypass flow (lpm),air temperature of the measurement (°C),ambient temperature measured by the external sensor (°C),aerosol sample conditioner tube jacket temperature (°C),OPC LED temperature (°C),internal box temperature (°C),relative humidity of the measurement (%),span deviation,mass concentration of particles derived from Lorenz-Mie calculation of OPC scattering (μg/m³),mass concentration of particles derived from Lorenz-Mie calculation of OPC scattering (μg/m³),mass concentration of particles derived from Lorenz-Mie calculation of OPC scattering (μg/m³)
DateTimeUTC,F1_M11,P_M11,Q1_M11,Q2_M11,T1_M11,T2_M11,T3_M11,T4_M11,T5_M11,U1_M11,ZSPAN_M11,X0_M11,X2_M11,X1_M11
2024-01-11 12:00:00,SystemResetWarning,0808.8,5.00,000.00,018.9,018.0,000.0,027.3,020.0,10.4,0000.0,0005.25,0003.56,0003.34
2024-01-11 12:01:00,SystemResetWarning,0808.8,5.00,000.00,018.8,017.9,000.0,027.3,020.0,10.4,0000.0,0005.52,0003.55,0003.33
2024-01-11 12:02:00,SystemResetWarning,0808.7,5.00,000.00,018.8,017.8,000.0,027.3,020.0,10.4,0000.0,0006.12,0003.54,0003.32
2024-01-11 12:03:00,SystemResetWarning,0808.7,5.00,000.00,018.8,017.7,000.0,027.3,020.0,10.4,0000.0,0006.03,0003.51,0003.31
2024-01-11 12:04:00,SystemResetWarning,0808.6,5.00,000.00,018.8,017.6,000.0,027.3,020.0,10.4,0000.0,0006.09,0003.51,0003.29
2024-01-11 12:05:00,SystemResetWarning,0808.6,5.00,000.00,018.8,017.5,000.0,027.3,020.0,10.4,0000.0,0006.08,0003.51,0003.29
2024-01-11 12:06:00,SystemResetWarning,0808.7,5.00,000.00,018.8,017.4,000.0,027.3,020.0,10.4,0000.0,0006.09,0003.49,0003.29
2024-01-11 12:07:00,SystemResetWarning,0808.8,5.01,000.00,018.8,017.8,000.0,027.3,020.3,10.4,0000.0,0006.04,0003.48,0003.27
2024-01-11 12:08:00,SystemResetWarning,0808.9,5.01,000.00,018.9,018.7,000.0,027.3,020.7,10.3,0000.0,0006.06,0003.47,0003.27
2024-01-11 12:09:00,SystemResetWarning,0809.0,4.98,000.00,019.0,019.1,000.0,027.3,020.6,10.2,0000.0,0006.01,0003.46,0003.27
2024-01-11 12:10:00,SystemResetWarning,0809.0,5.00,000.00,019.0,018.9,000.0,027.3,020.3,10.2,0000.0,0006.47,0003.46,0003.28
2024-01-11 12:11:00,SystemResetWarning,0809.0,5.00,000.00,019.0,018.7,000.0,027.3,020.0,10.2,0000.0,0007.24,0003.47,0003.29
2024-01-11 12:12:00,SystemResetWarning,0809.1,5.00,000.00,018.9,018.5,000.0,027.3,020.0,10.2,0000.0,0007.30,0003.49,0003.31
2024-01-11 12:13:00,SystemResetWarning,0809.1,5.01,000.00,018.9,018.3,000.0,027.3,020.0,10.2,0000.0,0006.78,0003.53,0003.33
2024-01-11 12:14:00,SystemResetWarning,0809.1,4.99,000.00,018.9,018.2,000.0,027.3,020.0,10.2,0000.0,0007.36,0003.59,0003.36
2024-01-11 12:15:00,SystemResetWarning,0809.2,5.00,000.00,018.9,018.1,000.0,027.3,020.0,10.2,0000.0,0007.45,0003.64,0003.41
2024-01-11 12:16:00,SystemResetWarning,0809.3,5.00,000.00,018.9,018.0,000.0,027.3,020.0,10.2,0000.0,0007.52,0003.69,0003.45
2024-01-11 12:17:00,SystemResetWarning,0809.3,5.00,000.00,018.9,017.9,000.0,027.3,020.0,10.2,0000.0,0008.35,0003.73,0003.50
2024-01-11 12:18:00,SystemResetWarning,0809.4,5.00,000.00,018.9,017.9,000.0,027.3,020.0,10.2,0000.0,0008.47,0003.82,0003.57
2024-01-11 12:19:00,SystemResetWarning,0809.4,5.00,000.00,018.9,017.9,000.0,027.3,020.0,10.1,0000.0,0008.64,0003.92,0003.63
2024-01-11 12:20:00,SystemResetWarning,0809.4,5.00,000.00,018.8,017.9,000.0,027.3,020.0,10.1,0000.0,0008.69,0004.00,0003.70
2024-01-11 12:21:00,SystemResetWarning,0809.5,5.00,000.00,018.8,017.9,000.0,027.3,020.0,10.1,0000.0,0008.41,0004.07,0003.77
2024-01-11 12:22:00,SystemResetWarning,0809.5,5.00,000.00,018.8,017.9,000.0,027.3,020.0,10.1,0000.0,0008.11,0004.16,0003.83
2024-01-11 12:23:00,SystemResetWarning,0809.4,5.00,000.00,018.8,017.9,000.0,027.3,020.0,10.1,0000.0,0008.23,0004.23,0003.90
2024-01-11 12:24:00,SystemResetWarning,0809.4,5.00,000.00,018.8,017.9,000.0,027.3,020.0,10.1,0000.0,0008.70,0004.28,0003.95
2024-01-11 12:25:00,SystemResetWarning,0809.3,5.00,000.00,018.8,017.9,000.0,027.3,020.0,10.1,0000.0,0008.73,0004.32,0004.00
2024-01-11 12:26:00,SystemResetWarning,0809.4,5.00,000.00,018.8,017.9,000.0,027.3,020.0,10.1,0000.0,0008.92,0004.35,0004.03
2024-01-11 12:27:00,SystemResetWarning,0809.4,5.00,000.00,018.8,017.8,000.0,027.3,020.0,10.1,0000.0,0008.99,0004.37,0004.06
2024-01-11 12:28:00,SystemResetWarning,0809.4,5.00,000.00,018.8,017.8,000.0,027.3,020.0,10.1,0000.0,0008.44,0004.42,0004.10
2024-01-11 12:29:00,SystemResetWarning,0809.5,5.00,000.00,018.8,017.8,000.0,027.3,020.0,10.1,0000.0,0008.39,0004.44,0004.12
2024-01-11 12:30:00,SystemResetWarning,0809.5,5.00,000.00,018.8,017.8,000.0,027.3,020.0,10.1,0000.0,0008.37,0004.45,0004.14
2024-01-11 12:31:00,SystemResetWarning,0809.5,5.00,000.00,018.8,017.8,000.0,027.3,020.0,10.1,0000.0,0008.45,0004.48,0004.15
2024-01-11 12:32:00,SystemResetWarning,0809.5,5.00,000.00,018.8,017.8,000.0,027.3,020.0,10.1,0000.0,0008.65,0004.53,0004.17
2024-01-11 12:33:00,SystemResetWarning,0809.5,4.99,000.00,018.7,017.8,000.0,027.2,020.0,10.1,0000.0,0008.85,0004.53,0004.18
2024-01-11 12:34:00,SystemResetWarning,0809.6,4.99,000.00,018.7,017.8,000.0,027.2,020.0,10.1,0000.0,0008.95,0004.53,0004.17
2024-01-11 12:35:00,SystemResetWarning,0809.5,4.99,000.00,018.7,017.8,000.0,027.3,020.0,10.1,0000.0,0008.65,0004.51,0004.15
2024-01-11 12:36:00,SystemResetWarning,0809.6,5.01,000.00,018.7,017.8,000.0,027.3,020.0,10.2,0000.0,0008.43,0004.52,0004.16
2024-01-11 12:37:00,SystemResetWarning,0809.6,5.01,000.00,018.7,017.8,000.0,027.3,020.0,10.2,0000.0,0008.22,0004.52,0004.15
2024-01-11 12:38:00,SystemResetWarning,0809.6,5.00,000.00,018.7,017.8,000.0,027.3,020.0,10.2,0000.0,0008.14,0004.52,0004.15
2024-01-11 12:39:00,SystemResetWarning,0809.7,4.99,000.00,018.7,017.8,000.0,027.2,020.0,10.2,0000.0,0008.09,0004.52,0004.13
2024-01-11 12:40:00,SystemResetWarning,0809.7,4.99,000.00,018.7,017.8,000.0,027.2,020.0,10.2,0000.0,0008.60,0004.51,0004.12
2024-01-11 12:41:00,SystemResetWarning,0809.7,5.00,000.00,018.7,017.8,000.0,027.2,020.0,10.2,0000.0,0008.66,0004.49,0004.11
2024-01-11 12:42:00,SystemResetWarning,0809.7,5.00,000.00,018.7,017.9,000.0,027.2,020.2,10.2,0000.0,0008.59,0004.47,0004.11
2024-01-11 12:43:00,SystemResetWarning,0809.7,5.01,000.00,018.9,018.5,000.0,027.2,020.6,10.1,0000.0,0008.47,0004.46,0004.09
2024-01-11 12:44:00,SystemResetWarning,0809.8,5.00,000.00,019.0,019.0,000.0,027.2,020.7,10.1,0000.0,0008.26,0004.43,0004.07
2024-01-11 12:45:00,SystemResetWarning,0809.7,4.99,000.00,019.0,018.9,000.0,027.2,020.4,10.0,0000.0,0008.09,0004.43,0004.06
2024-01-11 12:46:00,SystemResetWarning,0809.8,5.00,000.00,019.0,018.8,000.0,027.2,020.2,10.1,0000.0,0007.99,0004.44,0004.05
2024-01-11 12:47:00,SystemResetWarning,0809.8,5.00,000.00,018.9,018.6,000.0,027.2,020.1,10.1,0000.0,0008.02,0004.46,0004.05
2024-01-11 12:48:00,SystemResetWarning,0809.8,4.99,000.00,018.9,018.5,000.0,027.2,020.0,10.1,0000.0,0007.99,0004.43,0004.04
2024-01-11 12:49:00,SystemResetWarning,0809.8,5.00,000.00,018.9,018.4,000.0,027.2,020.0,10.1,0000.0,0008.20,0004.44,0004.03
2024-01-11 12:50:00,SystemResetWarning,0809.9,5.01,000.00,018.9,018.2,000.0,027.2,020.0,10.1,0000.0,0009.11,0004.43,0004.01
2024-01-11 12:51:00,SystemResetWarning,0809.9,5.01,000.00,018.8,018.1,000.0,027.2,020.0,10.1,0000.0,0008.64,0004.39,0004.00
2024-01-11 12:52:00,SystemResetWarning,0809.9,4.99,000.00,018.8,018.0,000.0,027.2,020.0,10.1,0000.0,0008.46,0004.38,0003.98
2024-01-11 12:53:00,SystemResetWarning,0809.9,4.99,000.00,018.8,018.0,000.0,027.2,020.0,10.1,0000.0,0008.90,0004.32,0003.94
2024-01-11 12:54:00,SystemResetWarning,0810.0,5.00,000.00,018.8,017.9,000.0,027.2,020.0,10.1,0000.0,0009.31,0004.28,0003.90
2024-01-11 12:55:00,SystemResetWarning,0810.0,5.00,000.00,018.8,017.9,000.0,027.2,020.0,10.1,0000.0,0009.23,0004.24,0003.87
2024-01-11 12:56:00,SystemResetWarning,0810.0,5.00,000.00,018.8,017.8,000.0,027.2,020.0,10.2,0000.0,0009.21,0004.20,0003.83
2024-01-11 12:57:00,SystemResetWarning,0810.0,5.00,000.00,018.7,017.7,000.0,027.2,020.0,10.2,0000.0,0009.11,0004.14,0003.79
2024-01-11 12:58:00,SystemResetWarning,0810.1,5.00,000.00,018.7,017.7,000.0,027.2,020.0,10.2,0000.0,0008.89,0004.04,0003.76
2024-01-11 12:59:00,SystemResetWarning,0810.1,5.00,000.00,018.7,017.6,000.0,027.3,020.0,10.2,0000.0,0008.84,0004.01,0003.73
